GW1972 Weather Reports


time (UTC)temp
C
wind
direction
speed
KPH
gust
KPH
rain 1hr
cm
rain 24hr
cm
rain mn
cm
humidity
%
barometer
mb
20260906103954 21 69 0.0 3.2 0.00 0.00 0.00 91 993.2
20260906103452 21 69 1.6 3.2 0.00 0.00 0.00 91 993.2
20260906102954 21 62 0.0 3.2 0.00 0.00 0.00 91 993.2
20260906102452 21 58 0.0 3.2 0.00 0.00 0.00 91 993.2
20260906101953 21 61 0.0 3.2 0.00 0.00 0.00 91 993.1
20260906100953 21 85 0.0 3.2 0.00 0.00 0.00 91 993.0
20260906100452 21 76 0.0 3.2 0.00 0.00 0.00 91 993.0
20260906095953 21 65 0.0 1.6 0.00 0.00 0.00 91 993.0
20260906095451 21 54 0.0 1.6 0.00 0.00 0.00 91 993.0
20260906094953 21 93 0.0 1.6 0.00 0.00 0.00 91 993.1
20260906094451 21 93 0.0 1.6 0.00 0.00 0.00 91 993.0
20260906093952 21 93 0.0 1.6 0.00 0.00 0.00 91 993.0
20260906093451 21 99 0.0 1.6 0.00 0.00 0.00 91 993.0
20260906092450 21 99 0.0 1.6 0.00 0.00 0.00 91 992.9
20260906091952 21 103 0.0 1.6 0.00 0.00 0.00 91 992.9
20260906091450 21 97 0.0 1.6 0.00 0.00 0.00 91 992.8
20260906090951 21 97 0.0 1.6 0.00 0.00 0.00 91 992.8
20260906090450 22 89 0.0 3.2 0.00 0.00 0.00 90 992.8
20260906085951 22 89 0.0 3.2 0.00 0.00 0.00 90 992.9
20260906084952 22 45 0.0 1.6 0.00 0.00 0.00 90 992.8
20260906084451 22 83 0.0 1.6 0.00 0.00 0.00 90 992.9
20260906083951 22 83 0.0 1.6 0.00 0.00 0.00 90 992.9
20260906083450 22 83 0.0 1.6 0.00 0.00 0.00 90 992.9
20260906082951 22 82 0.0 0.0 0.00 0.00 0.00 90 992.9
20260906082450 22 82 0.0 1.6 0.00 0.00 0.00 90 993.0
20260906081951 22 82 0.0 1.6 0.00 0.00 0.00 90 993.0
20260906081449 22 82 0.0 0.0 0.00 0.00 0.00 90 993.0
20260906080950 22 82 0.0 0.0 0.00 0.00 0.00 90 993.0
20260906080449 22 82 0.0 1.6 0.00 0.00 0.00 90 993.0
20260906075950 22 82 0.0 1.6 0.00 0.00 0.00 89 992.9
20260906075449 22 82 0.0 1.6 0.00 0.00 0.00 89 992.9
20260906074949 22 83 0.0 1.6 0.00 0.00 0.00 89 992.9
20260906074448 22 82 0.0 3.2 0.00 0.00 0.00 89 992.8
20260906073950 22 82 0.0 3.2 0.00 0.00 0.00 89 992.9
20260906073449 22 85 0.0 3.2 0.00 0.00 0.00 89 992.9
20260906072448 22 97 1.6 3.2 0.00 0.00 0.00 90 992.9
20260906071949 22 97 0.0 3.2 0.00 0.00 0.00 90 992.9
20260906071448 22 55 0.0 1.6 0.00 0.00 0.00 91 992.8
20260906070447 22 72 0.0 3.2 0.00 0.00 0.00 91 992.8
20260906065949 22 58 0.0 3.2 0.00 0.00 0.00 92 992.9
20260906065447 22 86 0.0 3.2 0.00 0.00 0.00 92 992.9
20260906064949 22 87 0.0 3.2 0.00 0.00 0.00 93 993.0
20260906064447 22 87 0.0 3.2 0.00 0.00 0.00 93 993.0
20260906063948 22 99 1.6 3.2 0.00 0.00 0.00 93 993.1
20260906062948 22 76 0.0 3.2 0.00 0.00 0.00 93 993.0
20260906062446 22 96 0.0 4.8 0.00 0.00 0.00 93 993.0
20260906061948 22 96 0.0 4.8 0.00 0.00 0.00 93 993.0
20260906060949 22 69 1.6 3.2 0.00 0.00 0.00 93 993.0
20260906060446 22 96 0.0 3.2 0.00 0.00 0.00 92 992.9
20260906055447 22 102 0.0 1.6 0.00 0.00 0.00 92 992.9
20260906054948 22 83 0.0 1.6 0.00 0.00 0.00 92 992.7
20260906054447 22 65 0.0 1.6 0.00 0.00 0.00 92 992.6
20260906053947 22 80 0.0 1.6 0.00 0.00 0.00 92 992.5
20260906053446 22 76 0.0 3.2 0.00 0.00 0.00 92 992.5
20260906052945 22 55 0.0 4.8 0.00 0.00 0.00 92 992.5
20260906051947 22 94 1.6 4.8 0.00 0.00 0.00 92 992.3
20260906050946 22 45 3.2 6.4 0.00 0.00 0.00 92 992.4
20260906050445 22 52 1.6 6.4 0.00 0.00 0.00 91 992.4
20260906045445 22 65 1.6 6.4 0.00 0.00 0.00 91 992.1
20260906044445 22 0 3.2 9.7 0.00 0.00 0.00 91 992.0
20260906043946 22 34 3.2 6.4 0.00 0.00 0.00 91 992.1
20260906043444 22 30 1.6 8.0 0.00 0.00 0.00 91 992.1
20260906042945 22 96 3.2 8.0 0.00 0.00 0.00 91 992.0
20260906042444 22 92 1.6 9.7 0.00 0.00 0.00 91 991.9
20260906041945 22 86 4.8 9.7 0.00 0.00 0.00 91 992.0
20260906041444 22 55 4.8 14.5 0.00 0.00 0.00 91 992.0
20260906040946 22 85 3.2 14.5 0.00 0.00 0.00 91 992.0
20260906035443 22 85 3.2 17.7 0.00 0.00 0.00 91 991.9
20260906034944 22 103 6.4 17.7 0.00 0.00 0.00 91 991.9
20260906034444 23 266 3.2 9.7 0.00 0.00 0.00 91 991.8
20260906033945 23 44 3.2 9.7 0.00 0.00 0.00 91 991.8
20260906033443 23 259 4.8 11.3 0.00 0.00 0.00 91 991.8
20260906032944 23 261 3.2 11.3 0.00 0.00 0.00 90 991.8
20260906032443 23 51 1.6 9.7 0.00 0.00 0.00 90 991.7
20260906031944 23 180 3.2 8.0 0.00 0.00 0.00 90 991.6
20260906031443 23 72 3.2 9.7 0.00 0.00 0.00 91 991.6
20260906030944 23 20 3.2 9.7 0.00 0.00 0.00 91 991.6
20260906030443 23 121 3.2 6.4 0.00 0.00 0.00 91 991.6
20260906025943 23 90 3.2 8.0 0.00 0.00 0.00 91 991.7
20260906025442 23 240 3.2 9.7 0.00 0.00 0.00 91 991.7
20260906024943 23 255 3.2 9.7 0.00 0.00 0.00 91 991.7
20260906023942 23 17 3.2 9.7 0.00 0.00 0.00 91 991.8
20260906023442 23 144 3.2 6.4 0.00 0.00 0.00 91 991.8
20260906022943 23 106 1.6 9.7 0.00 0.00 0.00 91 991.9
20260906021942 22 306 1.6 9.7 0.00 0.00 0.00 91 991.9
20260906021442 22 93 3.2 9.7 0.00 0.00 0.00 91 991.9
20260906020942 22 54 3.2 9.7 0.00 0.00 0.00 91 991.9
20260906020441 22 168 1.6 9.7 0.00 0.00 0.00 90 992.0
20260906015942 22 96 3.2 6.4 0.00 0.00 0.00 90 992.0
20260906015441 22 87 1.6 6.4 0.00 0.00 0.00 90 991.9
20260906014942 22 130 0.0 9.7 0.00 0.00 0.00 89 992.0
20260906014440 22 118 1.6 9.7 0.00 0.00 0.00 88 991.9
20260906013942 22 102 1.6 8.0 0.00 0.00 0.00 88 991.8
20260906013441 22 100 3.2 8.0 0.00 0.00 0.00 87 991.6
20260906012941 22 114 1.6 9.7 0.00 0.00 0.00 87 991.5
20260906012440 22 123 1.6 14.5 0.00 0.00 0.00 87 991.5
20260906011942 22 238 1.6 14.5 0.00 0.00 0.00 88 991.5
20260906011440 22 116 1.6 8.0 0.00 0.00 0.00 88 991.4
20260906010941 22 111 1.6 9.7 0.00 0.00 0.00 89 991.3
20260906010441 22 285 3.2 11.3 0.00 0.00 0.00 89 991.3
20260906005941 22 231 4.8 11.3 0.00 0.00 0.00 89 991.2
20260906005440 22 109 3.2 9.7 0.00 0.00 0.00 89 991.1
20260906003941 22 134 4.8 14.5 0.00 0.00 0.00 88 990.8
20260906003440 22 106 3.2 14.5 0.00 0.00 0.00 87 990.9
20260906002941 22 133 3.2 11.3 0.00 0.00 0.00 87 991.0
20260906002439 22 104 3.2 11.3 0.00 0.00 0.00 87 991.1
20260906001940 22 120 3.2 16.1 0.00 0.00 0.00 86 991.0
20260906001439 22 123 4.8 16.1 0.00 0.00 0.00 86 991.1
20260906000940 22 147 3.2 14.5 0.00 0.00 0.00 86 991.0
20260906000437 22 120 4.8 14.5 0.00 0.00 0.00 87 991.1
20260905235940 22 73 1.6 11.3 0.00 0.00 0.00 88 991.0
20260905235438 22 106 3.2 16.1 0.00 0.00 0.00 88 991.0
20260905234940 23 172 4.8 11.3 0.00 0.00 0.00 88 991.0
20260905234438 23 93 3.2 11.3 0.00 0.00 0.00 88 990.9
20260905233939 23 200 3.2 11.3 0.00 0.00 0.00 88 990.9
20260905233437 23 103 4.8 11.3 0.00 0.00 0.00 87 990.9
20260905232939 23 149 3.2 14.5 0.00 0.00 0.00 87 990.9
20260905231939 23 155 4.8 14.5 0.00 0.00 0.00 87 990.9
20260905231437 23 258 4.8 14.5 0.00 0.00 0.00 87 990.9
20260905230939 23 149 4.8 11.3 0.00 0.00 0.00 86 990.8
20260905230437 23 100 1.6 14.5 0.00 0.00 0.00 86 990.8
20260905225938 23 113 4.8 14.5 0.00 0.00 0.00 85 990.8
20260905225437 23 92 3.2 16.1 0.00 0.00 0.00 86 990.8
20260905224938 23 68 4.8 16.1 0.00 0.00 0.00 86 990.8
20260905224436 24 106 3.2 9.7 0.00 0.00 0.00 85 990.8
20260905223938 24 106 3.2 8.0 0.00 0.00 0.00 85 990.7
20260905222938 24 178 3.2 11.3 0.00 0.00 0.00 85 990.8
20260905222436 24 145 3.2 9.7 0.00 0.00 0.00 85 990.8
20260905221938 24 282 3.2 9.7 0.00 0.00 0.00 85 990.9
20260905221436 24 104 1.6 8.0 0.00 0.00 0.00 84 990.8
20260905220938 24 76 1.6 9.7 0.00 0.00 0.00 84 990.8
20260905220436 24 87 3.2 9.7 0.00 0.00 0.00 84 990.9
20260905215937 24 117 3.2 9.7 0.00 0.00 0.00 84 990.9
20260905215436 24 102 3.2 8.0 0.00 0.00 0.00 83 990.9
20260905214436 24 121 3.2 11.3 0.00 0.00 0.00 84 990.7
20260905213937 24 94 4.8 16.1 0.00 0.00 0.00 83 990.7
20260905213435 25 257 6.4 22.5 0.00 0.00 0.00 82 990.8
20260905212937 25 137 4.8 22.5 0.00 0.00 0.00 82 990.6
20260905211937 25 93 4.8 14.5 0.00 0.00 0.00 81 990.6
20260905211435 25 206 6.4 14.5 0.00 0.00 0.00 81 990.6
20260905210936 25 65 3.2 9.7 0.00 0.00 0.00 80 990.6
20260905210435 25 283 4.8 16.1 0.00 0.00 0.00 80 990.6
20260905205935 26 314 4.8 16.1 0.00 0.00 0.00 80 990.5
20260905204936 26 124 8.0 20.9 0.00 0.00 0.00 79 990.5
20260905204435 26 154 6.4 16.1 0.00 0.00 0.00 79 990.5
20260905203935 26 104 4.8 16.1 0.00 0.00 0.00 79 990.6
20260905202935 25 128 1.6 11.3 0.00 0.00 0.00 81 990.6
20260905202434 25 79 3.2 11.3 0.00 0.00 0.00 81 990.7
20260905201935 25 104 6.4 11.3 0.00 0.00 0.00 81 990.7
20260905201433 25 265 6.4 11.3 0.00 0.00 0.00 81 990.7
20260905200934 26 66 1.6 14.5 0.00 0.00 0.00 81 990.6
20260905200433 26 117 8.0 14.5 0.00 0.00 0.00 80 990.7
20260905195935 26 85 4.8 16.1 0.00 0.00 0.00 79 990.6
20260905195433 26 104 3.2 16.1 0.00 0.00 0.00 79 990.7
20260905194934 26 99 3.2 20.9 0.00 0.00 0.00 78 990.7
20260905194432 26 257 8.0 20.9 0.00 0.00 0.00 77 990.7
20260905193934 27 104 4.8 17.7 0.00 0.00 0.00 75 990.6
20260905193433 27 152 6.4 16.1 0.00 0.00 0.00 75 990.6
20260905192934 27 107 4.8 16.1 0.00 0.00 0.00 75 990.7
20260905191933 27 103 6.4 19.3 0.00 0.00 0.00 75 990.8
20260905191433 27 310 3.2 14.5 0.00 0.00 0.00 75 990.8
20260905190934 27 90 3.2 16.1 0.00 0.00 0.00 74 990.7
20260905190431 27 114 6.4 16.1 0.00 0.00 0.00 74 990.6
20260905185934 27 193 3.2 17.7 0.00 0.00 0.00 74 990.5
20260905185432 28 103 3.2 17.7 0.00 0.00 0.00 73 990.6
20260905184432 28 118 4.8 11.3 0.00 0.00 0.00 73 990.6
20260905183932 28 202 3.2 14.5 0.00 0.00 0.00 75 990.6
20260905183431 27 130 6.4 14.5 0.00 0.00 0.00 74 990.6
20260905182933 27 76 4.8 16.1 0.00 0.00 0.00 73 990.5
20260905182431 27 135 4.8 17.7 0.00 0.00 0.00 73 990.6
20260905181932 27 93 6.4 17.7 0.00 0.00 0.00 75 990.4
20260905181431 27 107 3.2 9.7 0.00 0.00 0.00 75 990.6
20260905180431 27 203 4.8 9.7 0.00 0.00 0.00 74 990.6
20260905175931 28 204 3.2 11.3 0.00 0.00 0.00 74 990.6
20260905174931 28 107 4.8 11.3 0.00 0.00 0.00 72 990.6
20260905174430 29 116 6.4 9.7 0.00 0.00 0.00 70 990.6
20260905173932 29 121 4.8 11.3 0.00 0.00 0.00 71 990.5
20260905173430 28 227 4.8 11.3 0.00 0.00 0.00 70 990.4
20260905172931 29 27 4.8 11.3 0.00 0.00 0.00 69 990.5
20260905170930 29 89 4.8 9.7 0.00 0.00 0.00 71 990.5
20260905170429 29 154 3.2 16.1 0.00 0.00 0.00 73 990.6
20260905165929 28 102 4.8 16.1 0.00 0.00 0.00 71 990.7
20260905163930 28 116 3.2 9.7 0.00 0.00 0.00 74 990.6
20260905163429 28 97 3.2 11.3 0.00 0.00 0.00 75 990.6
20260905162930 28 183 3.2 11.3 0.00 0.00 0.00 75 990.7
20260905162427 28 97 3.2 8.0 0.00 0.00 0.00 77 990.7
20260905161930 28 113 3.2 9.7 0.00 0.00 0.00 77 990.6
20260905161428 28 152 4.8 9.7 0.00 0.00 0.00 78 990.7
20260905160929 28 104 3.2 8.0 0.00 0.00 0.00 80 990.7
20260905154929 27 90 1.6 6.4 0.00 0.00 0.00 82 990.6
20260905154427 27 99 1.6 6.4 0.00 0.00 0.00 83 990.4
20260905153929 27 262 1.6 11.3 0.00 0.00 0.00 83 990.5
20260905153426 27 87 3.2 11.3 0.00 0.00 0.00 82 990.4
20260905152928 27 100 1.6 9.7 0.00 0.00 0.00 83 990.4
20260905152427 27 102 3.2 9.7 0.00 0.00 0.00 82 990.4
20260905151928 27 31 4.8 9.7 0.00 0.00 0.00 82 990.4
20260905151427 28 90 3.2 8.0 0.00 0.00 0.00 81 990.4
20260905150928 28 66 3.2 8.0 0.00 0.00 0.00 81 990.3
20260905150427 27 100 0.0 8.0 0.00 0.00 0.00 82 990.2
20260905145927 27 89 3.2 8.0 0.00 0.00 0.00 82 990.2
20260905145426 27 168 3.2 8.0 0.00 0.00 0.00 81 990.1
20260905144425 28 111 3.2 8.0 0.00 0.00 0.00 79 990.1
20260905143927 28 65 1.6 6.4 0.00 0.00 0.00 81 989.9
20260905143426 28 79 0.0 8.0 0.00 0.00 0.00 83 989.8
20260905142927 27 274 1.6 8.0 0.00 0.00 0.00 84 989.8
20260905142426 27 176 1.6 8.0 0.00 0.00 0.00 84 989.8
20260905141927 27 104 1.6 11.3 0.00 0.00 0.00 83 989.8
20260905141426 28 96 3.2 11.3 0.00 0.00 0.00 84 989.7
20260905140925 27 92 1.6 11.3 0.00 0.00 0.00 84 989.8
20260905140425 27 44 0.0 4.8 0.00 0.00 0.00 84 989.8
20260905135927 27 104 1.6 6.4 0.00 0.00 0.00 84 989.9
20260905135425 27 109 0.0 6.4 0.00 0.00 0.00 84 990.0
20260905134927 27 103 1.6 6.4 0.00 0.00 0.00 84 990.0
20260905134425 27 92 1.6 8.0 0.00 0.00 0.00 83 989.9
20260905133926 27 104 1.6 8.0 0.00 0.00 0.00 86 989.8
20260905133424 27 103 1.6 4.8 0.00 0.00 0.00 87 989.8
20260905132926 27 104 1.6 4.8 0.00 0.00 0.00 88 989.7
20260905132425 26 104 0.0 4.8 0.00 0.00 0.00 90 989.7
20260905131926 26 96 1.6 3.2 0.00 0.00 0.00 90 989.6
20260905131424 26 107 0.0 3.2 0.00 0.00 0.00 92 989.6
20260905130925 25 107 0.0 4.8 0.00 0.00 0.00 92 989.5
20260905130424 25 120 1.6 4.8 0.00 0.00 0.00 92 989.5
20260905125424 25 97 0.0 3.2 0.00 0.00 0.00 93 989.4
20260905124925 25 94 0.0 3.2 0.00 0.00 0.00 94 989.4
20260905124423 25 102 1.6 3.2 0.00 0.00 0.00 94 989.4
20260905123925 25 102 0.0 3.2 0.00 0.00 0.00 94 989.4
20260905123424 25 100 0.0 1.6 0.00 0.00 0.00 94 989.4
20260905122924 25 102 0.0 1.6 0.00 0.00 0.00 95 989.3
20260905122423 24 100 0.0 1.6 0.00 0.00 0.00 95 989.2
20260905121924 24 102 0.0 1.6 0.00 0.00 0.00 95 989.1
20260905121423 24 110 0.0 1.6 0.00 0.00 0.00 96 989.1
20260905120924 24 110 0.0 3.2 0.00 0.00 0.00 98 989.1
20260905120423 24 110 0.0 3.2 0.00 0.00 0.00 98 989.0
20260905115924 23 48 0.0 1.6 0.00 0.00 0.00 98 988.8
20260905114924 23 48 0.0 0.0 0.00 0.00 0.00 98 988.7
20260905114423 23 48 0.0 0.0 0.00 0.00 0.00 98 988.7
20260905113923 23 48 0.0 0.0 0.00 0.00 0.00 98 988.7
20260905113423 23 48 0.0 0.0 0.00 0.00 0.00 98 988.7
20260905112923 23 48 0.0 0.0 0.00 0.00 0.00 98 988.6
20260905112422 23 48 0.0 0.0 0.00 0.00 0.00 98 988.5
20260905110923 23 48 0.0 1.6 0.00 0.00 0.00 98 988.5
20260905105922 23 48 0.0 0.0 0.00 0.00 0.00 98 988.4
20260905105421 23 48 0.0 0.0 0.00 0.00 0.00 98 988.3
20260905104922 23 48 0.0 0.0 0.00 0.00 0.00 98 988.3